Regional Weather Roundup
Issued by NWS Cleveland, OH

Home | Current Version | Previous Version | Graphics & Text | Print | Product List | Glossary On
Versions: 1 2 3 4 5 6 7 8 9 10 11 12 13 14 15 16 17 18 19 20 21 22 23 24 25 26 27 28 29 30 31 32 33 34 35 36 37 38 39 40 41 42 43 44 45 46 47 48 49 50
000
ASUS41 KCLE 040710
RWRCLE
OHIO REGIONAL WEATHER ROUNDUP
NATIONAL WEATHER SERVICE WILMINGTON, OH
200 AM EST WED MAR 04 2015

NOTE: "FAIR" INDICATES FEW OR NO CLOUDS BELOW 12,000 FEET WITH NO
SIGNIFICANT WEATHER AND/OR OBSTRUCTIONS TO VISIBILITY.

OHZ001>008-015>018-024>027-034-035-043-044-040800-
   NORTHWEST OHIO

CITY           SKY/WX    TMP DP  RH WIND       PRES   REMARKS
DEFIANCE       CLOUDY    35  27  72 W6        29.85R
FINDLAY        CLOUDY    35  31  85 W12       29.82S WCI  27
TOLEDO EXPRESS CLOUDY    34  27  75 W10       29.83R WCI  26
TOLEDO EXEC    CLOUDY    35  28  75 W13       29.83R WCI  26
LIMA           CLOUDY    35  31  85 W10       29.84R WCI  27
$$

OHZ009>014-019>023-028>033-038-089-040800-
   NORTHEAST OHIO

CITY           SKY/WX    TMP DP  RH WIND       PRES   REMARKS
CLE-HOPKINS    CLOUDY    35  32  88 W13       29.85R WCI  26
CLE-LAKEFRONT  CLOUDY    35  31  85 W14       29.82R WCI  26
CUY CO. ARPT   NOT AVBL
LORAIN-ELYRIA  CLOUDY    34  31  88 W10       29.83R WCI  26
ASHTABULA      CLOUDY    35  31  85 W12G20    29.78F WCI  27
AKRON-CANTON   CLOUDY    36  31  82 W16G25    29.80S
WOOSTER        CLOUDY    34  32  92 W14       29.81F WCI  25
MANSFIELD      CLOUDY    34  32  92 W9G20     29.81S WCI  27
YOUNGSTOWN     CLOUDY    37  32  82 W14G21    29.77F
$$

OHZ042-051>053-060>062-070>072-077>081-040800-
  SOUTHWEST OHIO

CITY           SKY/WX    TMP DP  RH WIND       PRES   REMARKS
CINC-COVINGTON LGT RAIN  38  38 100 CALM      29.87R FOG
CINC-LUNKEN    RAIN      38  38 100 CALM      29.90R FOG
HAMILTON       LGT RAIN  38  37  97 CALM      29.89R FOG
DAYTON         RAIN      36  34  92 NW7       29.86S FOG
WRIGHT-PAT AFB RAIN      37  35  96 W8        29.86R
DAYTON GENERAL RAIN      37  36  96 NW7       29.84S FOG
WILMINGTON     RAIN      37  35  92 W8        29.87R FOG
$$

OHZ036-037-039>041-045>050-054>059-063>069-073>076-082>088-040800-
  CENTRAL AND SOUTHEAST OHIO

CITY           SKY/WX    TMP DP  RH WIND       PRES   REMARKS
COLUMBUS       RAIN      36  35  96 NW7       29.84S FOG
OSU AIRPORT    RAIN      35  33  92 NW9       29.85R FOG     WCI  28
BOLTON FIELD   RAIN     N/A N/A N/A W5        29.86R
RICKENBACK AFB RAIN      36  35  98 CALM      29.85R
NEWARK         LGT RAIN  37  34  89 W9        29.85R FOG
MARION         CLOUDY    35  31  85 W9        29.83S WCI  28
LANCASTER      RAIN      37  36  96 NW3       29.85F FOG
ZANESVILLE     LGT RAIN  38  35  89 W8        29.85R
NEW PHILLY     LGT RAIN  39  36  89 W5        29.84R FOG
$$


USA.gov is the U.S. government's official web portal to all federal, state and local government web resources and services.